PulseSat

PulseSat

GSAT0208 (PRN E08)

Last updated on Jan. 14, 2019, 3:02 a.m. UTC

1 41175U 15079B   19013.48188818  .00000081  00000-0  00000+0 0  9998
2 41175  54.9333 175.8287 0002291 331.0600  28.9063  1.70473684 19134
UTC
Height (km)
Latitude
Longitude
Inclination
Orbital Period

Next 30 passes for location: Hong Kong

Rise time Rise Azimuth (degrees) Set time Set Azimuth (degrees) Duration Max altitude (degrees)

No matching passes for this satellites

PulseSat

PulseSat is the new satellites software and hardware trackering solution by Pulsely.
Satellite Two Line Element Set source: US Air Force Space Command

Download PulseSat for iOS
© 2017 Pulsely Limited